Regional Weather Roundup
Issued by NWS Raleigh/Durham, NC

Home | Current Version | Previous Version | Text Only | Print | Product List | Glossary On
Versions: 1 2 3 4 5 6 7 8 9 10 11 12 13 14 15 16 17 18 19 20 21 22 23 24 25 26 27 28
000
ASUS42 KRAH 251510
RWRRAH
NORTH CAROLINA WEATHER ROUNDUP
NATIONAL WEATHER SERVICE RALEIGH NC
1100 AM EDT SAT OCT 25 2014

NOTE: "FAIR" INDICATES FEW OR NO CLOUDS BELOW 12,000 FEET WITH NO
SIGNIFICANT WEATHER AND/OR OBSTRUCTIONS TO VISIBILITY.

NCZ001-053-055-056-065-067-251600-
WESTERN NORTH CAROLINA

CITY           SKY/WX    TMP DP  RH WIND       PRES   REMARKS
ASHEVILLE      SUNNY     57  40  52 N12       30.10F
JEFFERSON      SUNNY     57  23  26 NW3       30.07R
MORGANTON      SUNNY     57  44  60 CALM      30.09F
HICKORY        SUNNY     59  43  55 W3        30.04F
RUTHERFORDTON  SUNNY     62  41  44 CALM      30.06F
MOUNT AIRY     SUNNY     61  38  42 CALM      30.06F
BOONE          SUNNY     54  29  38 W12G20    30.09R
$$

NCZ021-022-025-041-071-084-088-251600-
CENTRAL NORTH CAROLINA

CITY           SKY/WX    TMP DP  RH WIND       PRES   REMARKS
CHARLOTTE      MOSUNNY   63  44  50 NW5       30.06S
GREENSBORO     SUNNY     62  41  46 N6        30.04S
WINSTON-SALEM  SUNNY     63  39  41 N8        30.05S
RALEIGH-DURHAM SUNNY     59  44  57 CALM      30.03S
FORT BRAGG     SUNNY     61  45  56 VRB7      30.01R
FAYETTEVILLE   SUNNY     62  43  49 N7        30.01S
BURLINGTON     SUNNY     61  40  45 VRB5      30.03F
LAURINBURG     SUNNY     63  43  48 N8        30.03R
$$

NCZ011-015-027-028-043-044-047-080-103-251600-
NORTHEASTERN NORTH CAROLINA

CITY           SKY/WX    TMP DP  RH WIND       PRES   REMARKS
ROCKY MT-WILSO SUNNY     63  43  48 E7        30.01R
GREENVILLE     SUNNY     63  45  51 CALM      30.01F
WASHINGTON     SUNNY     62  48  60 CALM      29.99F
ELIZABETH CITY SUNNY     65  49  56 N6        29.98F
MANTEO         SUNNY     63  52  67 NW7       29.98S
CAPE HATTERAS  SUNNY     64  56  75 VRB6      29.97F
$$

NCZ078-087-090-091-093-098-101-251600-
SOUTHEASTERN NORTH CAROLINA

CITY           SKY/WX    TMP DP  RH WIND       PRES   REMARKS
LUMBERTON      SUNNY     64  44  48 NW5       30.01S
GOLDSBORO      SUNNY     63  51  66 NE6       29.98F
KINSTON        SUNNY     64  46  52 E6        29.99F
KENANSVILLE    SUNNY     60  48  64 CALM      30.00F
NEW BERN       SUNNY     65  47  52 CALM      30.00F
CHERRY POINT   SUNNY     65  47  52 NE5       30.00F
BEAUFORT       SUNNY     66  51  58 N6        29.98F
JACKSONVILLE   SUNNY     63  48  58 E5        29.99F
WILMINGTON     SUNNY     67  51  56 N3        29.99F
$$




USA.gov is the U.S. government's official web portal to all federal, state and local government web resources and services.